User: anonymous   Login
Location: Burzi?i
(45.0869°N, 16.0577°E)
Time: 23:55:16
(UTC+00:00)
Language:

FALCON 9 DEB - Orbit

View from above orbital plane
View from above orbital plane
View from above satellite
View from above satellite

Ground track
Ground track

The orbit data is extracted from the following two-line orbital elements,

1 46087U 20055BN  21015.54354335  .00006622  00000-0  80820-4 0  9996
2 46087  53.0057 224.8737 0013777  85.4603 274.7983 15.61787790 29777
Epoch (UTC): 15 January 2021 13:02:42
Eccentricity: 0.0013777
inclination: 53.0057°
perigee height: 373 km
apogee height: 392 km
right ascension of ascending node: 224.8737°
argument of perigee: 85.4603°
revolutions per day: 15.61787790
mean anomaly at epoch: 274.7983°
orbit number at epoch: 2977

The dashed part of the orbit path shows where the satellite is in the earth's shadow,  

DLR